| time (UTC) | temp F | wind direction | speed MPH | gust MPH | rain 1hr in | rain 24hr in | rain mn in | humidity % | barometer mb |
| 20260905220047 | 78 | 355 | 2.0 | 5.0 | 0.00 | 0.00 | 0.00 | 66 | 1021.7 |
| 20260905210047 | 78 | 16 | 5.0 | 8.0 | 0.00 | 0.00 | 0.00 | 70 | 1021.8 |
| 20260905203048 | 79 | 310 | 2.0 | 8.0 | 0.00 | 0.00 | 0.00 | 67 | 1021.8 |
| 20260905200046 | 80 | 348 | 3.0 | 4.0 | 0.00 | 0.00 | 0.00 | 63 | 1021.8 |
| 20260905190046 | 80 | 346 | 3.0 | 5.0 | 0.00 | 0.00 | 0.00 | 62 | 1021.4 |
| 20260905183045 | 81 | 151 | 1.0 | 3.0 | 0.00 | 0.00 | 0.00 | 59 | 1021.0 |
| 20260905180044 | 81 | 305 | 5.0 | 7.0 | 0.00 | 0.00 | 0.00 | 59 | 1020.8 |
| 20260905170044 | 83 | 344 | 6.0 | 11.0 | 0.00 | 0.00 | 0.00 | 56 | 1020.8 |
| 20260905163044 | 85 | 265 | 7.0 | 9.0 | 0.00 | 0.00 | 0.00 | 48 | 1020.8 |
| 20260905160043 | 86 | 5 | 3.0 | 5.0 | 0.00 | 0.00 | 0.00 | 48 | 1020.6 |
| 20260905153043 | 87 | 274 | 8.0 | 12.0 | 0.00 | 0.00 | 0.00 | 53 | 1020.6 |
| 20260905143043 | 87 | 9 | 8.0 | 11.0 | 0.00 | 0.00 | 0.00 | 58 | 1020.9 |
| 20260905140042 | 88 | 298 | 7.0 | 10.0 | 0.00 | 0.00 | 0.00 | 56 | 1020.9 |
| 20260905133042 | 93 | 257 | 7.0 | 7.0 | 0.00 | 0.00 | 0.00 | 50 | 1021.5 |
| 20260905123041 | 92 | 163 | 4.0 | 7.0 | 0.00 | 0.00 | 0.00 | 38 | 1021.6 |
| 20260905120041 | 92 | 198 | 2.0 | 5.0 | 0.00 | 0.00 | 0.00 | 35 | 1021.6 |
| 20260905113041 | 91 | 160 | 6.0 | 11.0 | 0.00 | 0.00 | 0.00 | 38 | 1021.9 |
| 20260905110040 | 91 | 153 | 4.0 | 4.0 | 0.00 | 0.00 | 0.00 | 40 | 1022.1 |
| 20260905103040 | 91 | 161 | 5.0 | 7.0 | 0.00 | 0.00 | 0.00 | 39 | 1021.9 |
| 20260905100039 | 91 | 143 | 4.0 | 8.0 | 0.00 | 0.00 | 0.00 | 39 | 1022.0 |
| 20260905093039 | 91 | 189 | 4.0 | 5.0 | 0.00 | 0.00 | 0.00 | 36 | 1022.1 |
| 20260905090039 | 89 | 123 | 4.0 | 8.0 | 0.00 | 0.00 | 0.00 | 36 | 1022.0 |
| 20260905083039 | 86 | 105 | 2.0 | 2.0 | 0.00 | 0.00 | 0.00 | 47 | 1021.9 |
| 20260905060038 | 79 | 5 | 3.0 | 3.0 | 0.00 | 0.00 | 0.00 | 49 | 1020.6 |
| 20260905050037 | 77 | 330 | 4.0 | 4.0 | 0.00 | 0.00 | 0.00 | 50 | 1020.3 |
| 20260904223032 | 75 | 9 | 3.0 | 5.0 | 0.00 | 0.00 | 0.00 | 67 | 1021.1 |